Location: G�ndlingen
(48.0142°N, 7.6396°E)
Time: 02:52:43
(UTC+00:00)

Cosmos 2341 Rocket - Pass Details

Date: 05 July 2020
Orbit: 968 x 1004 km, 82.9° (Epoch: 04 August)

Event Time Altitude Azimuth Distance (km) Brightness Sun altitude
Exits shadow 23:11:49 26° 208° (SSW) 1,818 5.0 -19.1°
Maximum altitude 23:15:25 63° 282° (WNW) 1,077 4.2 -19.2°
Drops below altitude 10° 23:21:36 10° 4° (N) 2,723 7.6 -19.3°
Sets 23:24:10 0° 8° (N) 3,673 8.6 -19.3°
